Stations météo

réclame
Mon MeteoGroup
Olbia/Costa Smeralda, Italie (16531): Température de l'air & dewpoint: 14.10.2018 04:00:00 - 20.10.2018 04:00:00 (CEST)Olbia/Costa Smeralda, Italie (16531): Vitesse du vent: 14.10.2018 04:00:00 - 20.10.2018 04:00:00 (CEST)Olbia/Costa Smeralda, Italie (16531): Direction du vent: 14.10.2018 04:00:00 - 20.10.2018 04:00:00 (CEST)Olbia/Costa Smeralda, Italie (16531): reduced air pressure: 14.10.2018 04:00:00 - 20.10.2018 04:00:00 (CEST)Olbia/Costa Smeralda, Italie (16531): visibility: 14.10.2018 04:00:00 - 20.10.2018 04:00:00 (CEST)Olbia/Costa Smeralda, Italie (16531): Quantités de précipitations: 14.10.2018 04:00:00 - 20.10.2018 04:00:00 (CEST)
Date & Time tt [°C] td [°C] ff [km/h] ff [knt] dd ppp [hPa] vv [km] rr [mm]
20.10.2018 04:00:00 16,0 16,0 2 1 - - 7 -
20.10.2018 03:00:00 16,0 16,0 2 1 SSE - 7 -
20.10.2018 02:00:00 16,5 16,5 0 0 N 1019,1 8 -
20.10.2018 01:00:00 17,0 17,0 2 1 - - 8 -
20.10.2018 00:00:00 17,0 17,0 5 3 SSW - 8 -
19.10.2018 23:00:00 17,9 17,9 5 3 SSW 1018,8 8 0,0
19.10.2018 22:00:00 18,0 18,0 2 1 - - 10 -
19.10.2018 21:00:00 19,0 18,0 2 1 - - 10 -
19.10.2018 20:00:00 20,1 18,9 5 3 NNE 1017,4 10 -
19.10.2018 19:00:00 21,0 19,0 8 4 E - 10 -
19.10.2018 18:00:00 23,0 20,0 9 5 E - 10 -
19.10.2018 17:00:00 23,7 19,9 16 9 ESE 1015,9 10 0,0
19.10.2018 16:00:00 24,0 20,0 21 11 ENE - 10 -
19.10.2018 15:00:00 25,0 20,0 15 8 ENE - 10 -
19.10.2018 14:00:00 24,1 19,7 16 9 E 1015,8 10 -
19.10.2018 13:00:00 24,0 19,0 15 8 E - 10 -
19.10.2018 12:00:00 24,0 19,0 16 9 E - 10 -
19.10.2018 11:00:00 23,6 19,4 16 9 E 1015,8 10 0,0
19.10.2018 10:00:00 22,0 19,0 11 6 ENE - 10 -
19.10.2018 09:00:00 21,0 21,0 9 5 NE - 10 -
19.10.2018 08:00:00 21,2 20,2 9 5 ENE 1014,4 10 -
19.10.2018 07:00:00 - - - - - - - -
19.10.2018 06:00:00 - - - - - - - -
19.10.2018 05:00:00 20,3 19,6 4 2 - 1013,8 - 0,0
19.10.2018 04:00:00 - - - - - - - -
19.10.2018 03:00:00 - - - - - - - -
19.10.2018 02:00:00 18,6 18,5 4 2 ENE 1013,3 - -
19.10.2018 01:00:00 - - - - - - - -
19.10.2018 00:00:00 - - - - - - - -
18.10.2018 23:00:00 21,7 18,7 5 3 ENE 1013,1 - 0,0
18.10.2018 22:00:00 - - - - - - - -
18.10.2018 21:00:00 22,0 19,0 13 7 E - 10 -
18.10.2018 20:00:00 22,0 18,7 16 9 ENE 1011,7 10 -
18.10.2018 19:00:00 22,0 19,0 16 9 ENE - 10 -
18.10.2018 18:00:00 22,0 19,0 22 12 ENE - 10 -
18.10.2018 17:00:00 22,2 19,8 15 8 ENE 1010,4 10 0,0
18.10.2018 16:00:00 22,0 20,0 22 12 ENE - 8 -
18.10.2018 15:00:00 23,0 20,0 21 11 E - 10 -
18.10.2018 14:00:00 23,0 20,0 22 12 ENE - 10 -
18.10.2018 13:00:00 24,0 21,0 22 12 ENE - 10 -
18.10.2018 12:00:00 23,0 20,0 24 13 ENE - 10 -
18.10.2018 11:00:00 22,4 20,2 13 7 ENE 1011,3 8 0,0
18.10.2018 10:00:00 21,0 21,0 13 7 E - 6 -
18.10.2018 09:00:00 22,0 20,0 18 10 ENE - 10 -
18.10.2018 08:00:00 21,5 19,9 22 12 NE 1010,9 6 -
18.10.2018 07:00:00 21,0 20,0 22 12 NE - 10 -
18.10.2018 06:00:00 21,0 20,0 24 13 NE - 10 -
18.10.2018 05:00:00 21,0 20,1 21 11 ENE 1011,3 10 0,0
18.10.2018 04:00:00 21,0 21,0 22 12 ENE - 10 -
18.10.2018 03:00:00 19,0 19,0 4 2 - - 10 -
18.10.2018 02:00:00 18,4 18,4 4 2 - 1012,8 10 -
18.10.2018 01:00:00 19,0 19,0 5 3 N - 10 -
18.10.2018 00:00:00 19,0 19,0 4 2 NE - 10 -
17.10.2018 23:00:00 19,5 19,2 8 4 E 1013,7 10 0,0
17.10.2018 22:00:00 20,0 19,0 8 4 ESE - 10 -
17.10.2018 21:00:00 20,0 19,0 8 4 ENE - 10 -
17.10.2018 20:00:00 20,1 18,8 4 2 - 1013,3 10 -
17.10.2018 19:00:00 21,0 19,0 5 3 E - 10 -
17.10.2018 18:00:00 22,0 20,0 9 5 E - 10 -
17.10.2018 17:00:00 22,5 19,2 15 8 ESE 1012,7 10 0,0
17.10.2018 16:00:00 23,0 19,0 13 7 E - 10 -
17.10.2018 15:00:00 23,0 20,0 18 10 E - 10 -
17.10.2018 14:00:00 22,6 19,5 11 6 E 1013,3 10 -
17.10.2018 13:00:00 23,0 19,0 11 6 N - 10 -
17.10.2018 12:00:00 22,0 19,0 2 1 - - 10 -
17.10.2018 11:00:00 20,3 19,6 0 0 N 1014,3 10 0,0
17.10.2018 10:00:00 19,0 19,0 5 3 E - 10 -
17.10.2018 09:00:00 18,0 18,0 5 3 WSW - 10 -
17.10.2018 08:00:00 17,9 17,9 4 2 - 1013,9 10 -
17.10.2018 07:00:00 18,0 18,0 5 3 SSW - 10 -
17.10.2018 06:00:00 18,0 18,0 5 3 SSW - 10 -
17.10.2018 05:00:00 18,4 18,4 4 2 - 1013,7 10 0,0
17.10.2018 04:00:00 18,0 18,0 2 1 - - 5 -
17.10.2018 03:00:00 18,0 18,0 5 3 SW - 10 -
17.10.2018 02:00:00 17,9 17,9 2 1 - 1015,2 10 -
17.10.2018 01:00:00 17,0 17,0 4 2 - - 10 -
17.10.2018 00:00:00 17,0 17,0 8 4 WSW - 10 -
16.10.2018 23:00:00 17,3 17,2 2 1 - 1016,3 10 0,0
16.10.2018 22:00:00 18,0 18,0 5 3 SW - 10 -
16.10.2018 21:00:00 19,0 18,0 2 1 - - 10 -
16.10.2018 20:00:00 19,8 18,3 5 3 E 1015,7 10 -
16.10.2018 19:00:00 21,0 19,0 4 2 - - 10 -
16.10.2018 18:00:00 22,0 19,0 11 6 E - 10 -
16.10.2018 17:00:00 22,2 18,5 13 7 E 1015,5 10 0,0
16.10.2018 16:00:00 24,0 17,0 13 7 E - 10 -
16.10.2018 15:00:00 23,0 19,0 18 10 NE - 10 -
16.10.2018 14:00:00 24,0 18,5 11 6 ENE 1014,9 10 -
16.10.2018 13:00:00 24,0 17,0 5 3 ENE - 10 -
16.10.2018 12:00:00 24,0 18,0 4 2 - - 10 -
16.10.2018 11:00:00 22,8 18,7 4 2 - 1015,4 10 0,0
16.10.2018 10:00:00 20,0 19,0 9 5 SW - 10 -
16.10.2018 09:00:00 18,0 18,0 9 5 SW - 10 -
16.10.2018 08:00:00 17,2 17,2 2 1 SW 1014,4 10 -
16.10.2018 07:00:00 18,0 18,0 2 1 - - 10 -
16.10.2018 06:00:00 18,0 18,0 4 2 WSW - 10 -
16.10.2018 05:00:00 18,0 18,0 4 2 - - 10 -
16.10.2018 04:00:00 18,0 18,0 4 2 W - 10 -
16.10.2018 03:00:00 18,0 18,0 4 2 S - 10 -
16.10.2018 02:00:00 18,1 18,0 4 2 - 1015,7 10 -
16.10.2018 01:00:00 18,0 18,0 4 2 S - 10 -
16.10.2018 00:00:00 18,0 18,0 9 5 WSW - 10 -
15.10.2018 23:00:00 18,8 18,0 8 4 WSW 1015,9 10 0,0
15.10.2018 22:00:00 - - - - - - - -
15.10.2018 21:00:00 20,0 17,0 5 3 E - 10 -
15.10.2018 20:00:00 19,8 17,5 8 4 E 1015,2 12 -
15.10.2018 19:00:00 20,0 17,0 8 4 E - 10 -
15.10.2018 18:00:00 22,0 17,0 8 4 E - 10 -
15.10.2018 17:00:00 22,2 17,4 13 7 E 1014,7 10 0,0
15.10.2018 16:00:00 23,0 18,0 16 9 E - 10 -
15.10.2018 15:00:00 24,0 17,0 18 10 E - 10 -
15.10.2018 14:00:00 23,7 16,3 18 10 ESE 1014,3 10 -
15.10.2018 13:00:00 23,0 18,0 15 8 ESE - 10 -
15.10.2018 12:00:00 22,0 19,0 9 5 SE - 10 -
15.10.2018 11:00:00 20,8 19,3 4 2 - 1015,4 10 0,0
15.10.2018 10:00:00 19,0 19,0 5 3 WSW - 10 -
15.10.2018 09:00:00 17,0 17,0 4 2 - - 10 -
15.10.2018 08:00:00 15,4 15,4 4 2 SSW 1014,0 10 -
15.10.2018 07:00:00 18,0 18,0 9 5 - - 7 -
15.10.2018 06:00:00 15,0 15,0 2 1 - - 7 -
15.10.2018 05:00:00 14,1 14,1 2 1 - 1014,3 8 0,0
15.10.2018 04:00:00 15,0 15,0 5 3 SW - 8 -
15.10.2018 03:00:00 15,0 14,0 4 2 WSW - 7 -
15.10.2018 02:00:00 15,1 14,9 4 2 - 1015,5 8 -
15.10.2018 01:00:00 15,0 15,0 5 3 WSW - 10 -
15.10.2018 00:00:00 16,0 15,0 4 2 W - 10 -
14.10.2018 23:00:00 16,2 15,0 4 2 - 1015,9 10 0,0
14.10.2018 22:00:00 18,0 15,0 2 1 - - 10 -
14.10.2018 21:00:00 19,0 16,0 8 4 SSE - 10 -
14.10.2018 20:00:00 18,4 17,1 0 0 N 1015,5 21 -
14.10.2018 19:00:00 20,0 16,0 9 5 SE - 10 -
14.10.2018 18:00:00 23,0 17,0 16 9 E - 10 -
14.10.2018 17:00:00 22,8 16,9 16 9 E 1015,3 10 0,0
14.10.2018 16:00:00 24,0 16,0 16 9 E - 10 -
14.10.2018 15:00:00 24,0 16,0 18 10 E - 10 -
14.10.2018 14:00:00 24,1 14,1 13 7 E 1016,5 10 -
14.10.2018 13:00:00 23,0 16,0 13 7 E - 10 -
14.10.2018 12:00:00 22,0 17,0 5 3 ENE - 10 -
14.10.2018 11:00:00 21,6 17,9 2 1 - 1017,9 10 0,0
14.10.2018 10:00:00 18,0 17,0 2 1 - - 10 -
14.10.2018 09:00:00 14,0 14,0 2 1 - - 8 -
14.10.2018 08:00:00 12,7 12,7 2 1 - 1018,1 6 -
14.10.2018 07:00:00 12,0 12,0 2 1 SSW - 7 -
14.10.2018 06:00:00 13,0 13,0 0 0 N - 6 -
14.10.2018 05:00:00 12,4 12,4 2 1 SSE 1018,5 10 0,0
14.10.2018 04:00:00 14,0 14,0 8 4 WSW - 10 -

tt = Température de l'air
td = dewpoint
ff = Vitesse du vent
dd = Direction du vent
ppp = reduced air pressure
vv = visibility
rr = Quantités de précipitations

stations d'obs. à proximité